Location: Unspecified
(52.4292°N, 19.3359°E)
Time: 16:47:26
(UTC+02:00)

A-11 Canister half - Visible Passes

Search period start: 10 April 2026 00:00
Search period end: 20 April 2026 00:00
Orbit: 1514 x 1685 km, 47.2° (Epoch: 10 April)

Date Brightness Start Highest point End Pass type
(mag) Time Alt. Az. Time Alt. Az. Time Alt. Az.
16 Apr 10.7 04:51:54 10° S 04:58:29 22° SE 05:05:11 10° E visible
17 Apr 10.7 04:29:17 10° S 04:35:35 21° SE 04:41:59 10° E visible
18 Apr 10.7 04:06:40 10° S 04:12:40 19° SE 04:18:46 10° E visible
19 Apr 10.7 03:44:06 10° SSE 03:49:47 18° SE 03:55:31 10° E visible
